Regional Weather Roundup
Issued by NWS Grand Forks, ND

Home | Current Version | Previous Version | Graphics & Text | Print | Product List | Glossary Off
Versions: 1 2 3 4 5 6 7 8 9 10 11 12 13 14 15 16 17 18 19 20 21 22 23 24 25 26 27 28 29 30 31 32 33 34 35 36 37 38 39 40 41 42 43 44 45 46 47 48 49 50

000
ASUS43 KFGF 301031
RWRFGF
PRAIRIE TO PINES  WEATHER ROUNDUP
NATIONAL WEATHER SERVICE EASTERN NORTH DAKOTA/GRAND FORKS ND
500 AM CDT SAT JUL 30 2016

 **SATELLITE DATA USED TO AUGMENT SKY COVER AT AUTOMATED STATIONS**
 *****  WEATHER ACROSS EASTERN NORTH DAKOTA  *****

CITY           SKY/WX    TMP DP  RH WIND       PRES   REMARKS
GRAND FORKS    LGT RAIN  65  61  87 CALM      29.95F
GRAND FRKS AFB CLOUDY    63  61  94 SE5       29.95F
DEVILS LAKE    CLEAR     66  62  87 SE7       29.94F
FARGO          PTCLDY    67  61  81 S8        29.97S
WAHPETON ARPT  PTSUNNY   63  59  88 SE6       30.00S
$$

 ***** WEATHER ACROSS CENTRAL AND WESTERN NORTH DAKOTA  *****

CITY           SKY/WX    TMP DP  RH WIND       PRES   REMARKS
BISMARCK       TSTM      64  62  93 NE13G22   29.94R
MINOT          MOCLDY    65  61  87 S3        29.90F
JAMESTOWN      PTCLDY    64  59  83 S9        29.95S
MINOT AFB      CLEAR     55  55 100 SW7       29.89S FOG
GARRISON         N/A     63  62  97 SE8       29.91F
WILLISTON      CLEAR     57  54  89 CALM      29.90F
DICKINSON      FOG       53  52  96 CALM      29.91S VSB 1/4
HETTINGER      CLEAR     59  55  87 SE5       29.95S
$$

 *****  OTHER AIRPORT OBSERVATIONS IN OUR AREA  *****

CITY           SKY/WX    TMP DP  RH WIND       PRES   REMARKS
WALHALLA       FAIR      63  57  82 SE5       29.93F
GRAFTON AIRPOR PTSUNNY   61  61 100 CALM      29.97S
VALLEY CITY AR PTSUNNY   63  63 100 S7        29.98S
CANDO          FAIR      59  59 100 SE5       29.95S
CAVALIER APRT  PTSUNNY   63  59  88 SW6       29.94S THUNDER
GWINNER        CLOUDY    64  61  88 S8        29.98F
SHEYENNE NWR     N/A     62  59  90 S2        29.95
ROLLA          FAIR      57  57 100 S5        29.94F
 ***** THE ABOVE OBSERVATIONS ARE NON NWS ARE NOT QUALITY
       CONTROLLED AND MAY MIS-REPORT RAIN FOR SNOW...
$$

  *****  WEATHER ACROSS NORTHERN MINNESOTA  *****

CITY           SKY/WX    TMP DP  RH WIND       PRES   REMARKS
FLAG ISLAND    CLEAR     66  61  82 CALM      29.97S
WARROAD        CLEAR     57  54  88 S3        29.99S
ROSEAU         CLEAR     54  48  82 S5        29.98S
HALLOCK        PTCLDY    57  55  94 SE6       29.95S
THF RVR FALLS  CLOUDY    57  55  93 SE3       29.99S
BAUDETTE       CLEAR     57  55  93 SE3       29.99F
WASKISH        CLEAR     57  55  94 S3        30.01S
CROOKSTON      LGT RAIN  64  63  94 S7        29.97S
STEPHEN NDAWN    N/A     59  55  88 SE3         N/A
GREENBUSH NDAW   N/A     54  54 100 S3          N/A
$$
  *****  WEATHER ACROSS CENTRAL AND WEST MINNESOTA  *****

CITY           SKY/WX    TMP DP  RH WIND       PRES   REMARKS
FOSSTON        CLOUDY    63  57  82 SE5       30.01S
BEMIDJI        CLEAR     57  56  95 CALM      30.02S
PARK RAPIDS    CLEAR     61  56  83 SE6       30.03R
ELBOW LAKE     FAIR      62  59  91 E6        30.02F
WADENA         CLEAR     55  55 100 CALM      30.04R
DETROIT LAKES  PTCLDY    64  61  88 S7        30.03R
MOORHEAD       CLOUDY    64  61  88 S8        29.99S
FERGUS FALLS   CLOUDY    64  61  88 SE5       30.03S
MORRIS MN      CLEAR     57  57 100 SE7       30.01S
STAPLES        PTCLDY    55  55 100 CALM      30.05R
$$
  *****  WEATHER ELSEWHERE ACROSS MINNESOTA  *****

CITY           SKY/WX    TMP DP  RH WIND       PRES   REMARKS
DULUTH         PTCLDY    53  52  96 CALM      30.06R
INTRNTL FALLS  CLEAR     54  52  93 SE3       30.03S
ELY            CLOUDY    46  46 100 CALM      30.07S
CLOQUET        PTCLDY    46  45  93 CALM      30.06S
WHEATON        CLOUDY    64  61  88 CALM      30.02F
BRAINERD       PTCLDY    56  55  97 CALM      30.05R
HIBBING        PTCLDY    43  43 100 CALM      30.07R FOG
ALEXANDRIA     CLEAR     61  57  87 S3        30.05S
SAINT CLOUD    CLEAR     52  52 100 CALM      30.04S FOG
MINNEAPOLIS    CLOUDY    69  58  67 NE3       30.02S
$$

  *****  WEATHER ACROSS SOUTH DAKOTA  *****

CITY           SKY/WX    TMP DP  RH WIND       PRES   REMARKS
SIOUX FALLS    CLEAR     56  53  90 CALM      30.03F
BROOKINGS      CLEAR     58  54  86 CALM      30.03F
WATERTOWN      MOCLDY    61  57  87 S8        30.02F
HURON          PTCLDY    61  55  81 S8        30.00S
SISSETON         N/A     66  58  75 SW5       29.99S
ABERDEEN       PTCLDY    63  56  78 S9        29.98F
MITCHELL       CLEAR     60  56  86 SE6       30.01F
PIERRE         CLEAR     63  56  78 SE7       29.94F
MOBRIDGE       PTCLDY    67  57  70 S8        29.93F
RAPID CITY     CLEAR     53  51  93 CALM      29.97F
$$

  *****  SOME WEATHER IN NEARBY STATES *****

CITY           SKY/WX    TMP DP  RH WIND       PRES   REMARKS
GLASGOW MT     CLEAR     59  53  80 E9        29.88F
GREAT FALLS MT CLEAR     65  48  54 S8        29.87F
CHEYENNE WY    CLOUDY    60  57  89 S6        30.13F
SCOTTSBLUFF NE MOCLDY    61  57  87 N6        30.02F
OMAHA NE       PTCLDY    62  59  90 N3        30.02S
DES MOINES IA  CLOUDY    68  65  90 N6        29.99S
DAVENPORT IA   CLOUDY    67  65  93 NE5       29.97R
CHICAGO IL     MOCLDY    71  65  81 NE12      29.93R
EAU CLAIRE WI  FOG       59  59 100 NE5       30.04S VSB 1
LA CROSSE WI   CLOUDY    67  65  93 CALM      30.01S
$$

  *****  SOME NATIONAL WEATHER *****

CITY           SKY/WX    TMP DP  RH WIND       PRES   REMARKS
LA GUARDIA NY  CLOUDY    76  70  82 NE5       29.95R
RALEIGH NC     CLOUDY    77  72  84 CALM      29.94R
ATLANTA GA     PTCLDY    74  72  93 W5        30.00R
NEW ORLEANS LA PTCLDY    80  75  84 CALM      30.01R
OKLAHOMA CITY  MOCLDY    73  70  90 S6        29.96F
ALBUQUERQUE NM CLOUDY    68  58  70 N8        30.17F
SALT LAKE CITY PTCLDY    81  41  24 SE5       29.92S
LOS ANGELES CA CLEAR     70  63  78 SW3       29.80F
BOISE ID       CLEAR     73  36  25 S6        29.81S
SEATTLE WA     PTCLDY    60  57  89 SW7       29.92R
$$

*** WEATHER ACROSS MANITOBA...SASKATCHEWAN AND ONTARIO ***
                ***ONTARIO***

CITY           SKY/WX    TMP DP  RH WIND       PRES   REMARKS
GERALDTON      PTCLDY    52  50  93 W2        30.07S
THUNDER BAY    PTCLDY    48  46  93 W5        30.08R
SIOUX LOOKOUT  PTCLDY    59  55  88 S6        30.01S
TORONTO        LGT RAIN  68  52  56 NE6       30.02S
BIG TROUT LK   CLOUDY    59  59 100 S3        29.93S
PICKLE LAKE    NOT AVBL
DRYDEN         CLEAR     63  57  82 S8        30.01S
KENORA         PTCLDY    63  59  88 S6        29.98F
$$
                *** MANITOBA***

CITY           SKY/WX    TMP DP  RH WIND       PRES   REMARKS
BRANDON        PTCLDY    57  55  94 NE5       29.90F
DAUPHIN        CLEAR     64  59  82 SW10      29.85F
ISLAND LAKE    PTCLDY    61  59  94 S5        29.90S
PILOT MOUND      N/A     57  57 100 SE6         N/A
THE PAS        PTCLDY    61  59  94 S3        29.80S
THOMPSON       LGT RAIN  63  61  94 VRB2      29.81S
WINNIPEG       PTCLDY    59  54  82 S8        29.94S
LYNN LAKE      CLOUDY    59  57  94 MISG      29.81S
CHURCHILL      MOCLDY    50  45  81 SE6       29.96F
GILLAM         CLOUDY    54  50  87 E6        29.88F
$$
                ***SASKATCHEWAN***

CITY           SKY/WX    TMP DP  RH WIND       PRES   REMARKS
ESTEVAN        CLEAR     57  55  94 S3        29.90S
KINDERSLEY     PTCLDY    61  55  82 S9        29.83F
LLOYDMINSTER   CLEAR     61  55  82 S10       29.78F
PRINCE ALBERT  PTCLDY    54  52  94 CALM      29.80S
REGINA         CLEAR     54  52  94 SE6       29.88S
YORKTON        CLEAR     61  57  88 S6        29.87S
N. BATTLEFORD  CLEAR     59  57  94 S6        29.81F
LA RONGE       CLEAR     55  54  94 S5        29.76F
SASKATOON      CLEAR     59  59 100 S3        29.84S
SWIFT CURRENT  CLEAR     57  54  88 S8        29.88S
$$
NOTE: THESE ARE AUTOMATED STATIONS WITH LIMITED QUALITY CONTROL
      "FAIR" INDICATES FEW OR NO CLOUDS BELOW 12,000 FEET WITH NO
      SIGNIFICANT WEATHER AND/OR OBSTRUCTIONS TO VISIBILITY.
      SKY/WX - SKY CONDITION AND SIGNIFICANT WEATHER.
      TMP - AIR TEMPERATURE.    DP   - DEWPOINT TEMPERATURE.
      RH  - RELATIVE HUMIDITY.  PRES - PRESSURE.
      HX  - HEAT INDEX.         WCI  - WIND CHILL INDEX.
$




USA.gov is the U.S. government's official web portal to all federal, state and local government web resources and services.